• în Republica Moldova
  • Lista ţărilor
  • Pe 7 zile
  • Temperatura apei
  • Hartă satelitară
  • Meteo pe hartă
  • Widget-uri
  • user-avatar
    Intrare

    Meteo pe oră la Berat

    Astăzi, 23 August, Miercuri

    Timp Temperatura Precipitaţii Vânt Presiune Umiditate
    00:00 +19°C° 0 mm 2 m/s 744 mmHg 49%
    01:00 +19°C° 0 mm 2 m/s 744 mmHg 49%
    02:00 +19°C° 0 mm 2 m/s 744 mmHg 49%
    03:00 +18°C° 0 mm 2 m/s 744 mmHg 50%
    04:00 +18°C° 0 mm 2 m/s 744 mmHg 50%
    05:00 +20°C° 0 mm 2 m/s 744 mmHg 47%
    06:00 +21°C° 0 mm 2 m/s 744 mmHg 44%
    07:00 +24°C° 0 mm 2 m/s 745 mmHg 41%
    08:00 +26°C° 0 mm 2 m/s 745 mmHg 38%
    09:00 +28°C° 0 mm 2 m/s 745 mmHg 35%
    10:00 +30°C° 0 mm 1 m/s 745 mmHg 32%
    11:00 +30°C° 0 mm 2 m/s 745 mmHg 30%
    12:00 +31°C° 0 mm 3 m/s 745 mmHg 28%
    13:00 +33°C° 0 mm 4 m/s 745 mmHg 26%
    14:00 +32°C° 0 mm 4 m/s 745 mmHg 27%
    15:00 +32°C° 0 mm 4 m/s 745 mmHg 28%
    16:00 +30°C° 0 mm 4 m/s 745 mmHg 29%
    17:00 +28°C° 0 mm 4 m/s 745 mmHg 35%
    18:00 +25°C° 0 mm 3 m/s 745 mmHg 42%
    19:00 +23°C° 0 mm 2 m/s 745 mmHg 49%
    20:00 +21°C° 0 mm 2 m/s 746 mmHg 50%
    21:00 +21°C° 0 mm 2 m/s 746 mmHg 52%
    22:00 +20°C° 0 mm 2 m/s 746 mmHg 53%
    23:00 +20°C° 0 mm 2 m/s 746 mmHg 52%

    Mâine, 24 August, Joi

    Timp Temperatura Precipitaţii Vânt Presiune Umiditate
    00:00 +20°C° 0 mm 2 m/s 746 mmHg 51%
    01:00 +19°C° 0 mm 2 m/s 746 mmHg 50%
    02:00 +19°C° 0 mm 2 m/s 746 mmHg 50%
    03:00 +19°C° 0 mm 2 m/s 746 mmHg 50%
    04:00 +19°C° 0 mm 2 m/s 746 mmHg 50%
    05:00 +20°C° 0 mm 2 m/s 747 mmHg 47%
    06:00 +23°C° 0 mm 2 m/s 747 mmHg 44%
    07:00 +24°C° 0 mm 2 m/s 747 mmHg 42%
    08:00 +27°C° 0 mm 2 m/s 747 mmHg 37%
    09:00 +29°C° 0 mm 2 m/s 748 mmHg 33%
    10:00 +31°C° 0 mm 2 m/s 748 mmHg 29%
    11:00 +32°C° 0 mm 2 m/s 747 mmHg 27%
    12:00 +34°C° 0 mm 3 m/s 747 mmHg 25%
    13:00 +34°C° 0 mm 3 m/s 747 mmHg 23%
    14:00 +34°C° 0 mm 4 m/s 747 mmHg 23%
    15:00 +34°C° 0 mm 4 m/s 747 mmHg 24%
    16:00 +34°C° 0 mm 4 m/s 746 mmHg 25%
    17:00 +30°C° 0 mm 3 m/s 747 mmHg 30%
    18:00 +27°C° 0 mm 3 m/s 747 mmHg 35%
    19:00 +25°C° 0 mm 2 m/s 747 mmHg 40%
    20:00 +24°C° 0 mm 2 m/s 747 mmHg 40%
    21:00 +24°C° 0 mm 2 m/s 748 mmHg 39%
    22:00 +23°C° 0 mm 2 m/s 748 mmHg 39%
    23:00 +23°C° 0 mm 2 m/s 748 mmHg 37%

    Poimâine, 25 August, Vineri

    Timp Temperatura Precipitaţii Vânt Presiune Umiditate
    00:00 +23°C° 0 mm 2 m/s 748 mmHg 36%
    01:00 +21°C° 0 mm 2 m/s 748 mmHg 34%
    02:00 +21°C° 0 mm 2 m/s 748 mmHg 33%
    03:00 +21°C° 0 mm 2 m/s 748 mmHg 32%
    04:00 +21°C° 0 mm 2 m/s 747 mmHg 31%
    05:00 +23°C° 0 mm 2 m/s 748 mmHg 30%
    06:00 +25°C° 0 mm 2 m/s 748 mmHg 29%
    07:00 +26°C° 0 mm 2 m/s 748 mmHg 29%
    08:00 +29°C° 0 mm 2 m/s 748 mmHg 25%
    09:00 +31°C° 0 mm 2 m/s 748 mmHg 22%
    10:00 +33°C° 0 mm 1 m/s 748 mmHg 18%
    11:00 +35°C° 0 mm 2 m/s 748 mmHg 18%
    12:00 +36°C° 0 mm 2 m/s 747 mmHg 17%
    13:00 +37°C° 0 mm 3 m/s 747 mmHg 16%
    14:00 +36°C° 0 mm 3 m/s 747 mmHg 17%
    15:00 +36°C° 0 mm 3 m/s 746 mmHg 18%
    16:00 +36°C° 0 mm 3 m/s 746 mmHg 18%
    17:00 +33°C° 0 mm 3 m/s 746 mmHg 24%
    18:00 +29°C° 0 mm 2 m/s 746 mmHg 29%
    19:00 +26°C° 0 mm 2 m/s 746 mmHg 34%
    20:00 +25°C° 0 mm 2 m/s 747 mmHg 34%
    21:00 +25°C° 0 mm 2 m/s 747 mmHg 34%
    22:00 +24°C° 0 mm 2 m/s 747 mmHg 34%
    23:00 +24°C° 0 mm 2 m/s 747 mmHg 34%

    26 August, Sâmbătă

    Timp Temperatura Precipitaţii Vânt Presiune Umiditate
    00:00 +23°C° 0 mm 2 m/s 747 mmHg 34%
    01:00 +23°C° 0 mm 2 m/s 747 mmHg 34%
    02:00 +23°C° 0 mm 2 m/s 746 mmHg 35%
    03:00 +21°C° 0 mm 2 m/s 746 mmHg 35%
    04:00 +21°C° 0 mm 2 m/s 746 mmHg 36%
    05:00 +24°C° 0 mm 2 m/s 746 mmHg 36%
    06:00 +25°C° 0 mm 2 m/s 747 mmHg 35%
    07:00 +27°C° 0 mm 2 m/s 747 mmHg 34%
    08:00 +29°C° 0 mm 2 m/s 747 mmHg 30%
    09:00 +32°C° 0 mm 1 m/s 747 mmHg 25%
    10:00 +34°C° 0 mm 1 m/s 747 mmHg 21%
    11:00 +36°C° 0 mm 2 m/s 746 mmHg 19%
    12:00 +37°C° 0 mm 2 m/s 746 mmHg 18%
    13:00 +37°C° 0 mm 3 m/s 746 mmHg 17%
    14:00 +37°C° 0 mm 3 m/s 745 mmHg 18%
    15:00 +36°C° 0 mm 3 m/s 745 mmHg 19%
    16:00 +36°C° 0 mm 3 m/s 745 mmHg 20%
    17:00 +33°C° 0 mm 3 m/s 745 mmHg 25%
    18:00 +29°C° 0 mm 2 m/s 745 mmHg 30%
    19:00 +26°C° 0 mm 1 m/s 745 mmHg 35%
    20:00 +26°C° 0 mm 1 m/s 745 mmHg 35%
    21:00 +25°C° 0 mm 1 m/s 745 mmHg 36%
    22:00 +25°C° 0 mm 1 m/s 745 mmHg 37%
    23:00 +25°C° 0 mm 2 m/s 745 mmHg 38%

    27 August, Duminică

    Timp Temperatura Precipitaţii Vânt Presiune Umiditate
    00:00 +24°C° 0 mm 2 m/s 745 mmHg 38%
    01:00 +24°C° 0 mm 2 m/s 745 mmHg 39%
    02:00 +24°C° 0 mm 2 m/s 745 mmHg 40%
    03:00 +23°C° 0 mm 2 m/s 745 mmHg 40%
    04:00 +23°C° 0 mm 2 m/s 745 mmHg 40%
    05:00 +25°C° 0 mm 1 m/s 745 mmHg 38%
    06:00 +26°C° 0 mm 1 m/s 745 mmHg 36%
    07:00 +28°C° 0 mm 1 m/s 745 mmHg 34%
    08:00 +30°C° 0 mm 1 m/s 745 mmHg 30%
    09:00 +33°C° 0 mm 1 m/s 745 mmHg 25%
    10:00 +35°C° 0 mm 1 m/s 745 mmHg 20%
    11:00 +37°C° 0 mm 2 m/s 745 mmHg 20%
    12:00 +37°C° 0 mm 3 m/s 744 mmHg 19%
    13:00 +38°C° 0 mm 3 m/s 744 mmHg 18%
    14:00 +38°C° 0 mm 3 m/s 744 mmHg 18%
    15:00 +37°C° 0 mm 4 m/s 743 mmHg 19%
    16:00 +37°C° 0 mm 4 m/s 743 mmHg 20%
    17:00 +34°C° 0 mm 3 m/s 743 mmHg 25%
    18:00 +30°C° 0 mm 2 m/s 743 mmHg 30%
    19:00 +27°C° 0 mm 1 m/s 743 mmHg 35%
    20:00 +27°C° 0 mm 1 m/s 744 mmHg 35%
    21:00 +26°C° 0 mm 1 m/s 744 mmHg 35%
    22:00 +26°C° 0 mm 1 m/s 744 mmHg 35%
    23:00 +25°C° 0 mm 1 m/s 744 mmHg 35%

    28 August, Luni

    Timp Temperatura Precipitaţii Vânt Presiune Umiditate
    00:00 +25°C° 0 mm 1 m/s 744 mmHg 35%
    01:00 +25°C° 0 mm 1 m/s 744 mmHg 35%
    02:00 +25°C° 0 mm 1 m/s 744 mmHg 35%
    03:00 +24°C° 0 mm 1 m/s 743 mmHg 35%
    04:00 +24°C° 0 mm 1 m/s 743 mmHg 36%
    05:00 +26°C° 0 mm 1 m/s 744 mmHg 34%
    06:00 +27°C° 0 mm 1 m/s 744 mmHg 33%
    07:00 +29°C° 0 mm 1 m/s 744 mmHg 31%
    08:00 +31°C° 0 mm 1 m/s 744 mmHg 27%
    09:00 +34°C° 0 mm 1 m/s 744 mmHg 23%
    10:00 +37°C° 0 mm 2 m/s 744 mmHg 20%
    11:00 +38°C° 0 mm 2 m/s 743 mmHg 19%
    12:00 +38°C° 0 mm 3 m/s 743 mmHg 18%
    13:00 +40°C° 0 mm 4 m/s 743 mmHg 17%
    14:00 +38°C° 0 mm 4 m/s 742 mmHg 19%
    15:00 +38°C° 0 mm 4 m/s 742 mmHg 20%
    16:00 +37°C° 0 mm 4 m/s 742 mmHg 21%
    17:00 +34°C° 0 mm 3 m/s 742 mmHg 28%
    18:00 +30°C° 0 mm 2 m/s 742 mmHg 35%
    19:00 +27°C° 0 mm 2 m/s 742 mmHg 42%
    20:00 +27°C° 0 mm 2 m/s 743 mmHg 42%
    21:00 +27°C° 0 mm 2 m/s 743 mmHg 42%
    22:00 +26°C° 0 mm 1 m/s 743 mmHg 41%
    23:00 +26°C° 0 mm 1 m/s 743 mmHg 40%
    Arată mai mult